Location: Lanoux
(43.1180°N, 1.4255°E)
Time: 02:16:51
(UTC+00:00)

Meteor 2-10 - Pass Details

Date: 19 March 2026
Orbit: 736 x 866 km, 81.2° (Epoch: 13 April)

Event Time Altitude Azimuth Distance (km) Brightness Sun altitude
Rises 03:51:30 0° 6° (N) 3,177 7.6 -23.6°
Reaches altitude 10° 03:54:52 10° 30° (NNE) 2,255 7.1 -23.1°
Maximum altitude 03:57:44 15° 65° (ENE) 1,930 7.1 -22.6°
Drops below altitude 10° 04:00:37 10° 100° (E) 2,268 7.2 -22.1°
Sets 04:04:00 0° 123° (ESE) 3,208 7.7 -21.5°
